Location: *
(46.3500°N, 10.9000°E)
Time: 19:58:47
(UTC+00:00)

deb Explorer IX - Visible Passes

Search period start: 19 April 2021 00:00
Search period end: 29 April 2021 00:00
Orbit: 540 x 1099 km, 38.8° (Epoch: 19 April)

Date Brightness Start Highest point End Pass type
(mag) Time Alt. Az. Time Alt. Az. Time Alt. Az.
26 Apr ? 03:36:47 10° SSW 03:39:15 16° SSE 03:41:45 10° ESE visible
27 Apr ? 03:13:07 10° SSW 03:15:36 16° SSE 03:18:06 10° ESE visible
28 Apr ? 02:49:51 12° SSW 02:51:58 16° SSE 02:54:30 10° ESE visible
